Back to catalog

STARLINK-37899

AliveCommunicationsVLEO
NORAD 69952·PAYLOAD·🇺🇸 United States

Launched Jul 9, 2026 from Cape Canaveral Space Force Station

Loading…

Next Passes (next 24 hours)

TLE

FreshSource: CelesTrak SupGP

Epoch: Sep 14, 2026, 23:08 UTC

1 69952C 26157K   26257.96437500 -.00013749  00000+0 -40648-3 0  2575
2 69952  53.1585 359.6912 0001369  84.4603 207.1576 15.34377692    15

Track STARLINK-37899 in real time with AllMySat

Download on the App Store